Regional Weather Roundup
Issued by NWS

Home | Current Version | Previous Version | Text Only | Print | Product List | Glossary On
Versions: 1 2 3 4 5 6 7 8 9 10 11 12 13 14 15 16 17 18 19 20 21 22 23 24 25 26 27 28 29 30 31 32 33 34 35 36 37 38 39 40 41 42 43 44 45 46 47 48 49 50
000
ASUS46 KLOX 021213
RWRCA

SOUTHERN CALIFORNIA WEATHER ROUNDUP
NATIONAL WEATHER SERVICE OXNARD CALIFORNIA
500 AM PDT WED SEP 02 2015

NOTE: "FAIR" INDICATES FEW OR NO CLOUDS BELOW 12,000 FEET WITH NO
SIGNIFICANT WEATHER AND/OR OBSTRUCTIONS TO VISIBILITY.

  -  STATIONS PRECEEDED BY AN ASTERISK (*) ARE NOT NWS OR FAA
     STATIONS AND ARE NOT SUBJECT TO NWS AND FAA QUALITY CONTROL.

CAZ041-042-087-021300-
LA AND ORANGE COUNTY COASTAL AREAS


CITY           SKY/WX    TMP DP  RH WIND       PRES   REMARKS
L.A. DOWNTOWN  CLOUDY    70  59  68 CALM      29.94R
L.A. AIRPORT   CLOUDY    70  59  68 SE3       29.95S
LONG BEACH     CLOUDY    71  61  70 S6        29.94S

CITY           SKY/WX    TMP DP  RH WIND       PRES   REMARKS
AVALON           N/A     68 N/A N/A MISG        N/A
FULLERTON      CLOUDY    71  61  70 E5        29.94R
*GETTY CENTER    N/A     63  59  88 S6          N/A
HAWTHORNE      CLOUDY    71  59  65 E7        29.95R
*LEO CARRILLO    N/A     69  62  79 NE2         N/A
*LOS ALAMITOS  CLOUDY    70  63  78 S5        29.94S
*REDONDO BEACH   N/A     69  60  73 CALM      29.95S
SANTA ANA      CLOUDY    70  60  70 E7        29.94S
STA MONICA APT CLOUDY    70  60  70 S5        29.95R
*UCLA            N/A     68  57  68 SE2       29.93R

$$

CAZ547-548-048-021300-
LA COUNTY VALLEYS AND INLAND EMPIRE


CITY           SKY/WX    TMP DP  RH WIND       PRES   REMARKS
BURBANK        CLOUDY    69  60  73 S6        29.95R
VAN NUYS       CLOUDY    68  60  75 S3        29.95S

CITY           SKY/WX    TMP DP  RH WIND       PRES   REMARKS
CORONA AIRPORT CLOUDY    67  60  78 CALM      29.96F
*CHATSWORTH      N/A     67  60  77 CALM      29.94S
CHINO          CLOUDY    69  61  75 VRB3      29.97S
MARCH AFB      CLOUDY    65  62  90 CALM      29.97F
*NORTHRIDGE      N/A     66  59  77 CALM        N/A
ONTARIO        CLOUDY    67  60  78 SE3       29.96S
*PASADENA        N/A     68  63  83 CALM        N/A
RIVERSIDE      CLOUDY    67  60  78 CALM      29.96F
SAN BERNARDINO NOT AVBL
*SAN GABRIEL     N/A     70  62  78 S6        30.01R
*SAN RAFAEL HI   N/A     62  60  92 CALM        N/A
*SAUGUS          N/A     63  61  94 CALM        N/A
*WHITEMAN AP   NOT AVBL
*WHITTIER HILL   N/A     66  63  90 E5          N/A
*WOODLAND HILL   N/A     68  59  73 SE2         N/A

$$

CAZ054-055-021300-
LA AND SAN BERNARDINO COUNTY MOUNTAINS


CITY           SKY/WX    TMP DP  RH WIND       PRES   REMARKS
*BIG BEAR AIRP MOSUNNY   43  28  56 CALM      30.20S
*CHILAO          N/A     62  12  14 SE20        N/A
SANDBERG       PTCLDY    62  38  40 S15       30.07F
*WARM SPRINGS    N/A     59  44  57 SW10        N/A

$$

CAZ028-029-059-060-099-021300-
ANTELOPE VALLEY AND SURROUNDING AREAS


CITY           SKY/WX    TMP DP  RH WIND       PRES   REMARKS
LANCASTER      PTCLDY    65  34  31 W8        29.96R
PALMDALE       PTCLDY    61  53  75 S7        29.97S
*POPPY PARK      N/A     68  42  38 SW7G21      N/A

CITY           SKY/WX    TMP DP  RH WIND       PRES   REMARKS
29 PALMS       MOCLDY    74  49  41 NW3       29.97R
BARSTOW/DAGGET PTCLDY   N/A N/A N/A W13       29.93S
BISHOP         PTCLDY    53  27  36 NW5       29.98F
CHINA LAKE     MOCLDY    72  37  28 S5        29.90S
EDWARDS AFB    MOCLDY    65  51  60 S10       29.93S
MOJAVE         CLEAR     68  37  32 W8        29.95S
NEEDLES        CLEAR     85  51  31 VRB3      29.85R
VICTORVILLE    MOCLDY    64  48  55 CALM      29.98S

$$

CAZ039-040-021300-
VENTURA AND SANTA BARBARA COUNTY COAST


CITY           SKY/WX    TMP DP  RH WIND       PRES   REMARKS
CAMARILLO      MOCLDY    67  60  78 CALM      29.94R
NWS OXNARD       N/A     65  60  82 CALM      29.93R
OXNARD AIRPORT CLOUDY    67  61  81 NE3       29.94R
*POINT MUGU    CLOUDY    71  63  75 S9        29.94R
SBA APT/GOLETA CLOUDY    68  62  81 CALM      29.93R
*SANTA BARBARA   N/A     69  62  78 CALM      30.01R
*VENTURA         N/A     66  61  85 N3        29.56R

$$

CAZ044-045-021300-
VENTURA COUNTY VALLEYS


CITY           SKY/WX    TMP DP  RH WIND       PRES   REMARKS
*SIMI VALLEY     N/A     63  59  88 CALM      29.90R
*OJAI            N/A     62  59  89 CALM      29.89R
*FILLMORE        N/A     61  57  87 SW2       29.85R

$$

CAZ053-021300-
VENTURA COUNTY MOUNTAINS


CITY           SKY/WX    TMP DP  RH WIND       PRES   REMARKS
*LOCKWOOD VLY    N/A     45   9  23 MISG        N/A
*ROSE VALLEY     N/A     45  43  93 MISG        N/A

$$

CAZ034-035-036-021300-
CENTRAL COAST AND SANTA YNEZ VALLEY


CITY           SKY/WX    TMP DP  RH WIND       PRES   REMARKS
SAN LUIS OBISP CLEAR     57  52  83 SE3       29.95S
SANTA MARIA    MOCLDY    57  54  89 S3        29.96R

CITY           SKY/WX    TMP DP  RH WIND       PRES   REMARKS
*CAL POLY SLO    N/A     55  54  94 CALM        N/A
*LOMPOC        MOCLDY    54  48  82 CALM      29.96S
*PISMO BEACH     N/A     58  55  91 CALM      29.96R
*SANTA YNEZ    FOG       54  54 100 CALM      29.95S VSB 1/4

$$

CAZ037-038-051-021300-
SAN LUIS OBISPO COUNTY INTERIOR AND CUYAMA VALLEY


CITY           SKY/WX    TMP DP  RH WIND       PRES   REMARKS
*CUYAMA          N/A     58  48  69 CALM      29.86S
PASO ROBLES    PTCLDY    56  54  93 CALM      29.95S

$$

CAZ032-033-061-021300-
SOUTHERN DESERTS


CITY           SKY/WX    TMP DP  RH WIND       PRES   REMARKS
BLYTHE         CLEAR     80  62  54 E5        29.82S
IMPERIAL       CLEAR     81  46  29 W5        29.78S
PALM SPRINGS   PTCLDY    79  55  43 CALM      29.85R
THERMAL        PTCLDY    79  54  41 N6        29.79R

$$

ELSEWHERE ACROSS THE WESTERN UNITED STATES AND MEXICO


CITY           SKY/WX    TMP DP  RH WIND       PRES   REMARKS
DENVER, CO     MOCLDY    64  44  48 SW8       30.08R
GRAND CANYON,  PTCLDY    49  47  93 NE5       30.28R
HONOLULU, HI   PTCLDY    79  73  83 CALM      29.82F
KAHULUI, MAUI  CLEAR     82  75  78 S13       29.83F
LAKE TAHOE, CA CLEAR     50  33  52 CALM      30.11S
LAS VEGAS, NV  MOCLDY    84  54  35 S8        29.86S
MAMMOTH LAKES, FAIR      39  25  56 CALM      30.18S
MEXICO CITY, M LGT RAIN  59  55  88 E2        30.37S
PHOENIX, AZ    CLOUDY    87  66  49 E7        29.89R
PORTLAND, OR   CLOUDY    60  57  89 CALM      29.88S
RENO, NV       CLEAR     58  35  42 CALM      30.00S
SALT LAKE CITY PTCLDY    75  42  30 SE14      29.98R
SAN DIEGO, CA  CLOUDY    70  59  68 SW6       29.96S
SAN FRANCISCO, CLOUDY    63  55  75 W9        29.93F
SAN JOSE, CA   CLEAR     58  54  86 CALM      29.94S
SEATTLE, WA    CLOUDY    56  53  90 S9        29.83R
TIJUANA, MEX   CLOUDY    68  57  68 CALM      29.97F

$$

STATION/POSITION TIME  TEMP    WIND        PRES    VSBY  WAVE
                       AIR SEA DIR/SP/G                  HT/PER
                 (UTC) (F)     (DEG/KT/KT) (MB)    (MI)  (FT/S)
POINT ARGUELLO B NOT AVBL
WEST SANTA BARBA 1150   65 69  330/ 12/ 14 1012.7R         5/14
POINT CONCEPTION NOT AVBL
EAST SANTA BARBA 1200   65 67  240/  4/  6 1014.1R
SANTA MONICA BAY 1150   67 70  210/  4/  4 1013.9R         3/11


USA.gov is the U.S. government's official web portal to all federal, state and local government web resources and services.